Wind_Speed
35 36 36 37 37 39 40 41 41 40 40 41 41 41 41 42 42 42 42 42 42 42 42 43 43 43 43 43 43 43 43 43 43 43 43 43 44 44 44 44 44 45 45 45
35 36 36 37 38 39 40 41 41 41 41 42 42 43 43 43 43 43 44 44 44 44 44 44 44 44 45 45 45 45 45 44 44 44 44 44 45 45 46 46 46 46 46 46
36 36 36 36 37 39 40 40 40 42 43 44 44 44 43 43 44 44 44 44 44 44 45 45 45 45 46 46 46 46 46 46 46 46 46 46 46 47 47 47 47 48 48 49
35 36 36 36 36 37 39 39 41 42 43 44 44 46 43 43 43 43 43 44 44 44 45 46 46 46 46 46 47 47 47 47 47 47 47 47 48 48 48 48 49 49 50 50
35 35 36 36 36 37 38 38 39 40 42 43 43 46 43 42 42 42 43 44 44 44 45 46 46 46 47 47 47 48 48 48 48 48 48 49 49 49 49 50 51 51 51 51
35 35 36 36 36 36 38 38 40 41 42 44 41 43 43 40 40 41 42 43 43 44 44 45 46 47 47 47 48 48 48 48 49 49 49 50 50 50 51 51 52 52 53 53
35 35 35 36 37 38 38 39 40 42 43 43 42 44 44 41 39 39 40 42 43 44 45 46 46 46 47 47 48 48 49 49 49 50 50 51 51 51 51 52 52 53 54 54
35 34 34 35 36 37 38 39 40 42 43 43 42 43 42 41 40 40 40 41 42 43 44 45 46 46 47 47 48 49 49 49 49 50 51 51 52 52 52 52 53 54 55 55
35 35 35 35 35 36 37 38 39 41 43 44 44 43 41 40 40 39 39 40 41 42 43 44 45 46 46 47 48 49 49 50 50 51 51 52 53 53 53 53 54 55 56 56
35 37 36 36 36 36 37 37 38 39 41 43 43 42 41 39 38 38 39 39 40 41 42 43 44 45 46 47 48 49 49 50 50 51 52 52 53 54 54 54 55 55 56 56
34 36 36 36 35 35 35 36 37 39 41 42 43 42 41 40 40 40 40 40 41 41 42 43 44 45 46 47 48 49 49 50 51 51 53 53 54 55 55 55 55 54 55 55
33 35 36 35 35 35 35 35 36 38 40 42 43 43 41 40 40 40 41 41 41 42 42 43 44 45 46 47 48 49 50 51 52 52 53 53 54 56 56 56 55 56 56 56
33 35 36 36 35 35 35 36 37 38 40 40 41 40 39 39 39 40 40 40 41 42 42 42 43 44 45 46 47 48 49 50 51 52 52 53 54 55 56 56 57 56 56 56
34 34 35 36 36 37 37 37 37 38 39 40 40 39 39 39 39 39 40 41 41 42 42 43 43 44 44 45 46 47 48 49 50 51 51 52 52 53 54 54 55 55 56 55
34 34 34 35 36 36 37 37 37 38 38 39 38 39 38 39 40 40 41 42 42 43 43 43 44 44 44 45 45 46 47 48 49 50 50 51 51 51 52 52 53 53 54 54
34 35 35 35 35 36 35 35 36 36 36 36 37 36 36 38 39 40 41 42 43 43 43 43 44 44 45 45 45 46 47 48 48 49 50 50 50 51 51 52 52 53 53 53
34 35 35 35 34 35 34 32 33 34 34 35 36 36 36 37 38 39 40 41 42 43 43 43 43 43 44 44 45 46 47 47 48 48 49 49 49 50 50 51 52 52 52 53
34 34 34 34 33 34 32 31 32 33 33 34 35 35 36 36 37 38 39 40 40 41 42 42 42 43 44 45 45 45 45 46 47 48 48 49 49 49 50 50 51 51 52 52
32 33 33 33 33 34 32 32 32 33 33 34 35 35 35 36 36 36 37 38 38 39 40 40 41 42 43 44 45 45 45 45 46 46 47 48 49 49 49 50 50 50 50 51
31 32 33 33 34 34 33 32 32 34 34 33 34 35 35 35 36 35 36 37 37 38 38 39 39 40 41 42 43 44 45 45 46 47 47 47 48 48 48 49 49 49 50 50
32 32 32 32 33 33 32 32 32 33 34 34 34 34 34 35 36 36 37 37 37 37 38 38 38 39 39 40 41 42 44 45 45 46 46 46 46 46 47 47 48 48 49 49
32 33 33 33 34 34 32 32 32 32 33 33 34 34 35 35 35 36 36 37 37 37 37 38 38 38 39 39 39 40 41 42 43 44 45 45 46 46 46 47 47 48 48 48
33 33 34 34 34 34 33 33 33 33 33 34 34 35 36 36 36 36 36 36 37 37 37 37 38 38 38 38 39 39 40 40 41 41 43 44 45 46 46 47 47 48 48 48
33 34 34 35 34 34 34 34 33 33 34 34 35 35 35 35 35 35 35 35 35 36 37 37 37 37 37 37 38 39 39 39 40 41 42 43 44 44 45 45 45 46 46 46
34 34 34 34 34 34 34 34 33 33 34 34 34 34 35 35 35 35 35 35 35 35 36 36 36 35 36 36 37 38 38 39 39 40 41 42 43 44 44 44 45 45 45 45
33 33 33 34 34 34 34 33 33 33 34 34 35 35 36 35 35 35 35 34 34 34 34 34 35 35 35 36 37 38 38 38 39 39 40 40 41 42 42 42 43 43 43 44
Wind_Direction
272 271 271 272 271 271 271 270 270 269 269 267 266 264 262 262 261 260 259 259 258 258 258 258 258 258 258 259 259 260 260 261 261 261 261 261 261 261 261 261 260 260 260 260
273 273 274 273 272 271 271 271 270 270 269 269 267 266 264 263 262 261 260 260 259 259 258 258 258 258 259 259 259 260 260 261 261 261 261 261 261 261 261 261 261 261 261 260
274 275 274 274 273 272 272 272 271 271 270 270 270 268 266 265 263 262 261 261 260 259 258 258 258 258 258 259 259 259 260 260 260 261 261 261 261 261 261 261 262 262 261 261
275 275 274 274 274 274 273 273 272 272 272 272 271 271 267 266 264 263 262 262 261 261 260 259 258 258 258 258 259 259 260 260 260 261 261 261 261 261 261 261 261 262 262 262
277 277 275 275 276 276 275 274 273 273 274 273 272 272 270 268 266 264 264 263 262 261 260 259 259 258 258 258 259 259 260 260 260 261 261 261 261 261 262 262 262 262 262 262
278 278 277 277 277 277 276 275 274 274 274 272 273 273 272 270 269 266 265 265 264 262 260 259 259 259 259 259 259 259 260 260 261 261 261 261 261 262 262 262 262 262 262 262
281 280 279 278 278 277 277 277 277 276 275 275 275 273 273 274 271 268 266 265 265 264 262 261 260 260 260 259 260 260 260 260 261 261 261 261 262 262 262 263 263 263 262 263
282 281 281 281 280 280 279 278 279 279 279 278 276 275 275 275 274 271 268 267 266 265 265 263 262 261 261 261 261 261 260 260 261 261 261 262 262 262 263 263 263 263 262 262
285 284 284 283 282 281 281 280 280 281 280 279 277 277 275 275 274 272 270 268 267 266 265 264 263 262 262 262 261 261 261 261 261 261 262 262 263 263 263 263 263 263 263 263
286 286 285 284 283 282 281 282 281 281 281 281 280 279 278 276 274 273 271 269 267 267 266 265 264 263 262 261 262 262 262 262 262 262 262 262 262 263 263 264 264 264 264 264
289 288 287 285 284 283 283 281 280 279 279 279 281 280 280 279 277 275 273 271 269 268 267 265 264 264 263 263 262 263 263 263 264 264 264 263 263 263 263 264 265 265 266 265
290 289 288 286 283 282 282 282 281 280 280 279 280 280 280 279 278 277 275 273 271 269 268 267 266 265 263 263 264 264 264 265 265 265 265 265 265 264 264 264 265 266 266 267
292 290 290 288 285 282 282 282 281 281 280 280 280 282 281 279 278 276 275 274 273 271 269 268 267 265 265 265 265 265 266 266 266 266 266 266 266 266 265 265 266 267 267 267
292 291 290 290 289 285 282 282 281 281 280 280 280 280 279 279 277 276 274 274 274 274 272 270 269 267 267 266 266 266 266 267 267 267 268 268 267 267 267 268 267 268 268 268
293 293 292 291 290 288 285 282 281 281 281 282 283 282 281 278 277 276 276 276 276 276 275 273 271 269 269 268 267 267 267 268 268 268 268 268 268 268 268 268 268 268 268 268
295 295 295 293 290 288 287 285 283 282 283 284 283 283 283 279 277 277 277 277 277 276 275 275 273 271 269 269 269 269 269 269 269 269 269 269 269 268 268 268 268 268 269 270
295 297 297 295 292 288 288 290 286 285 286 285 284 284 284 282 280 279 279 278 277 277 277 276 274 271 270 270 270 271 270 271 271 270 269 269 269 269 269 269 269 270 270 271
296 296 297 297 294 291 295 292 290 288 287 287 286 285 283 283 282 281 281 281 279 278 277 276 275 273 272 271 271 271 271 271 271 270 269 268 269 269 270 270 270 271 271 271
296 296 297 298 297 296 295 295 294 291 289 289 288 287 286 286 285 284 284 283 281 280 279 278 277 276 275 273 272 271 271 271 271 270 269 269 269 269 270 270 270 271 271 271
296 295 296 298 297 298 299 296 295 293 293 292 290 288 287 287 286 286 285 285 284 282 281 280 280 279 278 276 274 273 272 272 271 270 270 270 270 270 270 270 270 271 271 271
296 296 296 297 296 298 299 298 297 296 297 295 292 290 289 289 289 288 287 286 285 284 282 281 281 281 280 279 278 276 275 274 272 271 270 270 270 271 270 270 270 271 272 273
298 298 298 297 297 299 299 297 297 297 297 295 293 293 291 290 290 290 289 288 287 286 285 284 283 283 282 281 280 280 278 277 275 273 271 270 270 270 270 270 271 272 273 273
298 298 297 297 297 297 297 296 296 296 296 295 294 294 294 292 291 291 291 290 289 288 286 285 285 284 283 283 282 282 281 279 277 275 273 272 272 271 271 272 272 272 273 274
298 297 297 297 297 296 296 295 295 295 296 296 295 295 295 295 293 293 292 292 290 288 287 286 285 284 284 283 283 283 282 282 280 278 276 275 274 274 273 274 274 274 274 274
296 297 297 297 297 295 296 296 295 295 295 296 295 295 295 296 295 294 293 292 291 289 288 287 286 285 285 284 285 285 284 283 282 281 279 278 277 275 274 274 274 274 274 274
296 297 297 296 296 296 296 296 295 295 295 295 295 295 295 296 295 294 294 293 293 292 291 290 288 288 288 288 287 287 286 285 284 283 282 281 279 277 276 275 275 275 275 275
Height
5691 5692 5691 5691 5690 5689 5688 5688 5688 5689 5689 5688 5688 5689 5690 5690 5691 5693 5693 5695 5696 5698 5699 5700 5701 5702 5704 5705 5706 5708 5709 5711 5712 5713 5714 5716 5717 5718 5719 5720 5721 5722 5723 5725
5683 5682 5683 5681 5680 5678 5678 5677 5678 5678 5677 5676 5676 5677 5679 5679 5681 5682 5683 5684 5686 5687 5688 5689 5690 5692 5693 5694 5696 5697 5698 5700 5701 5702 5704 5705 5706 5707 5708 5709 5710 5711 5712 5713
5673 5674 5673 5671 5670 5668 5668 5667 5667 5666 5666 5665 5665 5666 5668 5669 5669 5671 5672 5673 5674 5675 5676 5677 5679 5680 5681 5683 5684 5686 5687 5688 5690 5691 5692 5693 5694 5695 5696 5697 5698 5699 5700 5701
5664 5664 5663 5661 5660 5659 5658 5658 5656 5655 5654 5653 5654 5652 5657 5657 5658 5659 5660 5661 5662 5663 5664 5665 5666 5668 5669 5670 5672 5673 5675 5676 5678 5679 5680 5681 5682 5684 5685 5686 5686 5687 5688 5689
5654 5654 5653 5652 5651 5649 5648 5647 5645 5644 5642 5641 5642 5640 5644 5645 5647 5648 5649 5649 5650 5651 5652 5653 5654 5655 5657 5658 5659 5661 5662 5664 5665 5666 5668 5669 5670 5671 5672 5673 5673 5674 5675 5676
5645 5644 5643 5642 5641 5639 5637 5637 5634 5632 5630 5630 5633 5630 5630 5635 5636 5637 5637 5637 5637 5638 5639 5640 5641 5642 5644 5645 5647 5648 5650 5651 5652 5653 5654 5656 5657 5658 5659 5659 5660 5661 5662 5663
5636 5635 5633 5632 5631 5630 5628 5627 5624 5621 5619 5620 5622 5619 5621 5624 5625 5625 5625 5625 5625 5626 5626 5627 5628 5630 5631 5633 5634 5635 5637 5638 5639 5640 5641 5642 5643 5644 5645 5645 5646 5647 5648 5649
5625 5625 5624 5622 5621 5620 5618 5617 5615 5611 5609 5609 5609 5608 5613 5613 5613 5613 5613 5613 5613 5613 5614 5614 5615 5617 5618 5619 5621 5622 5624 5625 5626 5627 5628 5628 5629 5630 5631 5631 5632 5632 5633 5634
5616 5616 5615 5613 5611 5610 5608 5606 5605 5602 5598 5597 5597 5599 5601 5602 5601 5601 5602 5601 5602 5602 5602 5602 5603 5604 5605 5607 5608 5609 5610 5611 5612 5613 5614 5614 5615 5616 5616 5617 5617 5617 5618 5619
5607 5606 5606 5604 5602 5601 5599 5597 5595 5592 5588 5586 5586 5588 5591 5591 5590 5590 5590 5590 5590 5590 5590 5590 5591 5592 5593 5594 5595 5596 5597 5597 5598 5599 5599 5600 5601 5601 5602 5602 5603 5603 5603 5604
5598 5597 5596 5594 5593 5591 5590 5588 5585 5582 5580 5577 5575 5580 5580 5580 5579 5578 5578 5578 5578 5578 5578 5579 5579 5580 5580 5581 5582 5583 5583 5584 5584 5585 5585 5586 5586 5587 5587 5588 5588 5588 5588 5588
5590 5587 5586 5585 5584 5581 5580 5578 5576 5574 5571 5568 5566 5571 5571 5570 5568 5567 5566 5566 5566 5566 5566 5566 5567 5567 5568 5568 5569 5569 5569 5570 5570 5570 5571 5571 5571 5572 5572 5573 5573 5573 5573 5573
5582 5579 5577 5575 5576 5573 5571 5569 5566 5564 5561 5558 5557 5561 5560 5559 5557 5556 5555 5554 5554 5554 5554 5554 5554 5555 5555 5555 5556 5556 5556 5556 5556 5556 5556 5556 5557 5557 5557 5557 5558 5558 5558 5558
5573 5571 5569 5567 5565 5562 5560 5559 5556 5554 5551 5549 5549 5549 5550 5548 5546 5545 5544 5543 5542 5543 5542 5542 5542 5542 5542 5542 5542 5542 5542 5542 5542 5542 5542 5542 5542 5542 5542 5542 5543 5543 5543 5543
5565 5562 5560 5558 5555 5553 5551 5549 5547 5544 5542 5540 5540 5539 5539 5537 5535 5534 5533 5532 5532 5531 5530 5530 5530 5530 5530 5530 5529 5529 5529 5529 5528 5528 5528 5528 5528 5527 5528 5528 5528 5528 5528 5527
5557 5554 5551 5549 5546 5543 5541 5540 5538 5535 5533 5531 5529 5529 5529 5525 5523 5523 5522 5521 5520 5519 5519 5518 5517 5517 5517 5517 5516 5516 5516 5515 5515 5514 5514 5514 5514 5514 5513 5513 5513 5513 5513 5512
5549 5545 5542 5539 5537 5533 5533 5533 5529 5527 5525 5522 5520 5520 5517 5515 5513 5512 5510 5509 5508 5507 5506 5506 5505 5505 5504 5504 5503 5503 5502 5502 5501 5501 5500 5500 5500 5500 5499 5499 5499 5498 5498 5498
5541 5537 5533 5530 5528 5525 5528 5524 5521 5518 5516 5514 5511 5509 5507 5505 5503 5501 5499 5498 5496 5495 5495 5494 5493 5492 5492 5491 5490 5490 5489 5489 5488 5487 5487 5486 5486 5486 5485 5485 5484 5483 5483 5482
5533 5529 5525 5522 5518 5516 5518 5516 5512 5509 5507 5505 5502 5500 5497 5495 5493 5492 5489 5487 5485 5484 5483 5482 5480 5479 5479 5478 5477 5477 5476 5475 5474 5473 5473 5473 5472 5472 5471 5470 5470 5469 5468 5467
5526 5522 5519 5514 5510 5508 5511 5507 5503 5500 5498 5497 5493 5490 5487 5485 5484 5483 5479 5477 5475 5473 5471 5470 5469 5467 5466 5465 5464 5463 5462 5461 5461 5460 5459 5459 5458 5457 5457 5456 5455 5454 5454 5453
5518 5514 5511 5507 5502 5500 5502 5498 5494 5492 5491 5486 5483 5480 5478 5476 5474 5472 5469 5466 5464 5462 5460 5459 5457 5456 5454 5452 5451 5450 5448 5447 5446 5446 5445 5444 5444 5443 5442 5442 5441 5440 5439 5438
5509 5506 5503 5499 5495 5496 5493 5489 5487 5484 5480 5476 5473 5471 5468 5466 5463 5460 5458 5456 5454 5451 5449 5447 5446 5444 5442 5440 5438 5437 5435 5433 5432 5432 5431 5430 5429 5429 5428 5427 5426 5425 5424 5422
5501 5499 5495 5492 5491 5487 5483 5480 5478 5475 5472 5468 5465 5462 5459 5456 5453 5450 5448 5445 5443 5441 5438 5436 5434 5432 5430 5428 5426 5424 5422 5420 5419 5418 5417 5416 5415 5414 5413 5412 5411 5410 5409 5407
5493 5490 5486 5483 5482 5479 5475 5472 5469 5466 5462 5459 5456 5453 5449 5446 5443 5441 5438 5435 5433 5430 5427 5425 5423 5421 5419 5416 5414 5412 5410 5408 5406 5405 5403 5402 5401 5400 5398 5397 5396 5395 5394 5392
5485 5481 5477 5474 5473 5469 5466 5463 5460 5457 5453 5450 5447 5443 5440 5437 5434 5431 5428 5425 5422 5420 5417 5414 5412 5410 5408 5405 5402 5400 5398 5396 5394 5392 5390 5388 5387 5385 5384 5383 5382 5380 5379 5378
5477 5473 5469 5466 5464 5460 5458 5455 5451 5448 5444 5441 5438 5435 5431 5427 5425 5421 5418 5415 5413 5410 5407 5404 5402 5399 5397 5394 5391 5388 5386 5384 5381 5379 5377 5375 5373 5371 5370 5369 5368 5366 5365 5363